Regional Weather Roundup
Issued by NWS

Home | Current Version | Previous Version | Text Only | Print | Product List | Glossary Off
Versions: 1 2 3 4 5 6 7 8 9 10 11 12 13 14 15 16 17 18 19 20 21 22 23 24 25 26 27 28 29 30 31 32 33 34 35 36 37 38 39 40 41 42 43 44 45 46 47 48 49 50

074
ASUS43 KMPX 261410
RWRMN
WEATHER ROUNDUP FOR MINNESOTA
NATIONAL WEATHER SERVICE TWIN CITIES/CHANHASSEN MN
900 AM CDT TUE SEP 26 2017


NOTE: "FAIR" INDICATES FEW OR NO CLOUDS BELOW 12,000 FEET WITH NO
SIGNIFICANT WEATHER AND/OR OBSTRUCTIONS TO VISIBILITY. N/A MEANS
CURRENT SKY AND/OR WEATHER CONDITIONS ARE NOT AVAILABLE.

MNZ060>063-068>070-261500-
   Twin Cities Metro

CITY           SKY/WX    TMP DP  RH WIND       PRES   REMARKS
TWIN CITIES    CLOUDY    59  58  96 W8        29.94R
ST PAUL        CLOUDY    59  57  93 W7        29.94R
CRYSTAL        CLOUDY    57  54  89 W7        29.93R
BLAINE         DRIZZLE   57  57 100 W7        29.93R
LAKEVILLE      CLOUDY    55  55 100 W3        29.95R
EDEN PRAIRIE   CLOUDY    58  56  93 W7        29.94R
SOUTH ST PAUL  CLOUDY    59  57  96 W5        29.94R
LAKE ELMO      CLOUDY    59  55  88 W6        29.94R
$$
MNZ001>005-007-008-013>017-022>024-027-028-261500-
   Northwest Minnesota

CITY           SKY/WX    TMP DP  RH WIND       PRES   REMARKS
BEMIDJI        LGT RAIN  48  48  99 N3        30.00S
HALLOCK        LGT RAIN  50  48  93 N5        30.08R
ROSEAU         LGT RAIN  48  45  87 N9        30.04S
WARROAD        LGT RAIN  52  46  82 N10       30.04S
THIEF RVR FALL LGT RAIN  49  49 100 NW8       30.05S
CROOKSTON      RAIN      50  48  93 N6        30.06S
FOSSTON        DRIZZLE   46  46 100 N6        30.03S
DETROIT LAKES  DRIZZLE   50  48  93 NW8       30.03S
MOORHEAD       RAIN      48  48 100 NW8       30.05S
PARK RAPIDS    LGT RAIN  51  49  92 N8        29.99S FOG
MAHNOMEN       DRIZZLE   49  49  98 NW6       30.03R
$$
MNZ006-009>011-018-025>026-261500-
   North Central Minnesota

CITY           SKY/WX    TMP DP  RH WIND       PRES   REMARKS
BAUDETTE       LGT RAIN  50  48  93 NE6       30.04S
FLAG ISLAND    CLOUDY    52  46  82 E7        30.03F
INTL FALLS     CLOUDY    50  46  86 NE7       30.01F
WASKISH        DRIZZLE   48  48 100 NE6       30.01F
BIG FORK       RAIN      50  48  93 N3        29.98F
LONGVILLE      DRIZZLE   52  50  93 N3        29.96S
GRAND RAPIDS   LGT RAIN  51  50  96 N3        29.97F
CRANE LAKE     RAIN      48  46  93 CALM      30.01F
WALKER         HVY RAIN  50  49  97 N5        29.99R
$$
MNZ012-019>021-037-261500-
   Northeast Minnesota

CITY           SKY/WX    TMP DP  RH WIND       PRES   REMARKS
DULUTH         LGT RAIN  52  52 100 NE7       29.93S FOG
ELY            LGT RAIN  50  50 100 NE3       29.97F
HIBBING        RAIN      50  50 100 N5        29.96S FOG
EVELETH        RAIN      53  51  95 NE5       29.96F
DULUTH HARBOR  LGT RAIN  55  55 100 NE20G26   29.93S
GRAND MARAIS     N/A     53  52  96 VRB5      29.93F
$$
MNZ029>031-032-039>041-046>048-054>057-064-261500-
   West Central Minnesota

CITY           SKY/WX    TMP DP  RH WIND       PRES   REMARKS
FERGUS FALLS   LGT RAIN  52  52 100 NW7       30.03R
WHEATON        CLOUDY    50  48  93 NW9       30.07R
ALEXANDRIA     CLOUDY    53  52  96 N7        30.00F
ELBOW LAKE     CLOUDY    51  51 100 NW7       30.03R
WADENA         DRIZZLE   50  50 100 NW6       29.99F
GLENWOOD       CLOUDY    54  52  94 N8        29.99S
APPLETON       LGT RAIN  54  50  87 W10       30.04R
BENSON         CLOUDY    54  52  94 NW12      30.04R
ORTONVILLE     CLOUDY    50  48  93 NW10G18   30.06R
MADISON        CLOUDY    54  54 100 NW14G20   30.06R FOG
WILLMAR        CLOUDY    54  54 100 NW8       30.01R
$$
MNZ033>034-036-042>043-049>051-058-059-261500-
   Central Minnesota

CITY           SKY/WX    TMP DP  RH WIND       PRES   REMARKS
ST CLOUD       CLOUDY    54  54 100 NW8       29.96R FOG
SAUK CENTRE    CLOUDY    52  51  97 NW9       29.99R
PAYNESVILLE    DRIZZLE   54  53  99 NW9       29.99S
AITKIN         DRIZZLE   54  52  94 N5        29.93S
PINE RIVER     DRIZZLE   48  48 100 N7        30.00S
BRAINERD       LGT RAIN  53  53 100 N9        29.95S FOG
STAPLES        DRIZZLE   50  50 100 NW9       29.98S
LITTLE FALLS   DRIZZLE   52  50  93 NW8       29.96S
LITCHFIELD     CLOUDY    55  55 100 NW8       29.99R FOG
BUFFALO        CLOUDY    56  53  91 W6        29.97R
MAPLE LAKE     LGT RAIN  56  55  97 W6        29.97R
HUTCHINSON     CLOUDY    55  55  99 W7        29.99R FOG
$$
MNZ037-044-045-052-053-261500-
   East Central Minnesota

CITY           SKY/WX    TMP DP  RH WIND       PRES   REMARKS
PRINCETON      CLOUDY    57  55  94 W6        29.94R
MORA           CLOUDY    55  55 100 NW5       29.93S
RUSH CITY      CLOUDY    56  55  95 CALM      29.91S
MOOSE LAKE     DRIZZLE   54  52  94 NE7       29.89F
HINCKLEY       CLOUDY    57  57 100 N3        29.90F
CLOQUET        DRIZZLE   54  52  94 NE7       29.93S
MCGREGOR       CLOUDY    54  52  94 N7        29.93F
$$
MNZ071>073-080-081-089-090-097-098-261500-
   Southwest Minnesota

CITY           SKY/WX    TMP DP  RH WIND       PRES   REMARKS
MONTEVIDEO     CLOUDY    54  54 100 NW9       30.04R
GRANITE FALLS  CLOUDY    54  53  97 W14       30.05R FOG
CANBY          CLOUDY    52  51  96 NW10      30.07R FOG
MARSHALL       CLOUDY    51  50  96 NW14      30.05R
REDWOOD FALLS  CLOUDY    54  52  93 NW9       30.01R
OLIVIA         CLOUDY    54  52  94 NW7       29.99S FOG
PIPESTONE      CLOUDY    52  50  93 NW10G17   30.06R
WORTHINGTON    CLOUDY    52  50  93 NW15      30.05R
JACKSON        CLOUDY    52  52 100 NW10      30.03R
TRACY          CLOUDY    52  52 100 NW10      30.04R
SLAYTON        CLOUDY    51  44  77 W12       30.05R HAZE
$$
MNZ065>067-074>077-082>085-091>093-261500-
   South Central Minnesota

CITY           SKY/WX    TMP DP  RH WIND       PRES   REMARKS
MANKATO        CLOUDY    57  55  93 W14       29.98R
NEW ULM        CLOUDY    55  54  94 NW12      29.99R FOG
ST JAMES       CLOUDY    54  54 100 W9        30.02R FOG
FAIRMONT       CLOUDY    55  53  93 NW14      30.02R
FARIBAULT      CLOUDY    57  55  94 W3        29.95F
OWATONNA       CLOUDY    57  55  94 CALM      29.96S
WASECA         CLOUDY    55  55 100 W3        29.98R
ALBERT LEA     CLOUDY    59  59 100 NW6       29.97R
$$
MNZ078>079-086>088-094>096-261500-
   Southeast Minnesota

CITY           SKY/WX    TMP DP  RH WIND       PRES   REMARKS
ROCHESTER      LGT RAIN  61  60  97 W12       29.96R
RED WING       DRIZZLE   61  57  88 W8        29.92R
STANTON        CLOUDY    59  56  91 CALM      29.94R
DODGE CENTER   CLOUDY    57  57 100 W12       29.96R
WINONA         CLOUDY    66  64  94 CALM      29.93R
AUSTIN         CLOUDY    57  57 100 NW10      29.96R
PRESTON        CLOUDY    64  62  96 SW8       29.95S FOG
$$
ABBREVIATIONS USED IN REMARKS
   TC - TEMPERATURES IN CELSIUS
  WCI - WIND CHILL INDEX
   HX - HEAT INDEX
  VSB - VISIBILITY
$$




USA.gov is the U.S. government's official web portal to all federal, state and local government web resources and services.